Location: Del Amo
(33.8464°N, 118.2104°W)
Time: 08:50:06
(UTC+00:00)

Vanguard 3 - Pass Details

Date: 17 September 2024
Orbit: 507 x 3223 km, 33.3° (Epoch: 09 October)

Event Time Altitude Azimuth Distance (km) Brightness Sun altitude
Rises 18:12:13 0° 281° (W) 7,183 11.7 51.1°
Reaches altitude 10° 18:17:11 10° 280° (W) 6,116 11.4 51.7°
Maximum altitude 18:36:06 77° 199° (SSW) 2,585 11.0 54.0°
Drops below altitude 10° 18:48:02 10° 115° (ESE) 4,082 11.3 55.1°
Sets 18:50:39 0° 114° (ESE) 4,775 11.5 55.4°
